Location: Walnut Point State Park
(39.6958°N, 88.0345°W)
Time: 08:33:19
(UTC-05:00)

Cosmos 1833 Rocket - Visible Passes

Search period start: 29 April 2017 00:00
Search period end: 09 May 2017 00:00
Orbit: 833 x 840 km, 71.0° (Epoch: 27 April)

Date Brightness Start Highest point End Pass type
(mag) Time Alt. Az. Time Alt. Az. Time Alt. Az.
29 Apr 4.1 03:21:58 21° SE 03:24:32 30° ESE 03:29:23 10° NE visible
29 Apr 3.4 05:03:41 12° WSW 05:08:19 36° WNW 05:13:29 10° N visible
30 Apr 4.2 03:05:58 23° SE 03:07:53 28° ESE 03:12:35 10° NE visible
30 Apr 3.3 04:47:42 17° WSW 04:51:36 39° WNW 04:56:51 10° N visible
01 May 4.2 02:49:56 23° ESE 02:51:15 26° ESE 02:55:47 10° NE visible
01 May 3.2 04:31:38 22° WSW 04:34:53 42° WNW 04:40:13 10° N visible
02 May 4.3 02:33:50 23° ESE 02:34:37 23° E 02:38:58 10° NE visible
02 May 3.1 04:15:32 27° WSW 04:18:11 46° WNW 04:23:35 10° NNE visible
03 May 4.4 02:17:41 21° ESE 02:17:58 21° E 02:22:07 10° NE visible
03 May 3.0 03:59:24 34° WSW 04:01:28 50° WNW 04:06:56 10° NNE visible
04 May 4.5 02:01:30 20° E 02:01:30 20° E 02:05:15 10° NE visible
04 May 2.9 03:43:12 41° WSW 03:44:46 54° WNW 03:50:18 10° NNE visible
05 May 4.7 01:45:16 18° E 01:45:16 18° E 01:48:22 10° ENE visible
05 May 2.8 03:26:58 50° WSW 03:28:05 59° WNW 03:33:39 10° NNE visible
06 May 4.8 01:29:00 16° E 01:29:00 16° E 01:31:26 10° ENE visible
06 May 2.7 03:10:42 59° WSW 03:11:23 64° WNW 03:16:59 10° NNE visible
06 May 4.9 04:55:32 10° NW 04:56:28 10° NW 04:57:23 10° NW visible
07 May 4.9 01:12:42 14° E 01:12:42 14° E 01:14:28 10° ENE visible
07 May 2.6 02:54:24 68° W 02:54:42 70° WNW 03:00:19 10° NNE visible
07 May 4.8 04:37:59 10° WNW 04:39:41 11° NW 04:41:23 10° NNW visible
08 May 5.1 00:56:22 12° E 00:56:22 12° E 00:57:25 10° ENE visible
08 May 2.6 02:38:03 76° WNW 02:38:03 76° WNW 02:43:39 10° NNE visible
08 May 4.8 04:20:42 10° WNW 04:22:55 12° NW 04:25:07 10° NNW visible
